Simultaneous Nadir Overpasses (SNOs) Predictions

Prediction of SNOs between GOES-14 and AQUA Satellite Orbit:

Table of predicted SNOs for the next 14.0 days since TLE Epoch: 10/29/2022
Index Date Time (GOES-14) GOES-14 Lat,Lon AQUA Lat,Lon Distance(km) Time Diff (sec)
1 10/30/2022 08:35:37 0.12,-104.35 -0.01,-103.84 58.13 80
2 11/01/2022 08:22:44 0.12,-104.34 -0.66,-100.71 413.11 80
3 11/01/2022 20:43:57 -0.09,-104.15 -0.46,-105.84 193.40 80
4 11/03/2022 20:33:44 -0.09,-104.14 0.22,-102.71 163.02 80
5 11/04/2022 08:54:50 0.06,-104.36 0.78,-107.83 394.34 80
6 11/06/2022 08:41:56 0.07,-104.36 0.13,-104.69 37.66 80
7 11/08/2022 08:26:22 0.08,-104.35 -0.55,-101.55 319.15 80
8 11/08/2022 20:47:34 -0.05,-104.11 -0.61,-106.68 292.13 80
9 11/10/2022 20:37:20 -0.06,-104.11 0.09,-103.54 65.49 80
10 11/11/2022 08:58:25 0.03,-104.38 0.95,-108.66 486.95 80
